Volver al catálogo

STARLINK-33549

ActivoComunicacionesVLEO
NORAD 62289·PAYLOAD·🇺🇸 United States

Lanzado Dec 8, 2024 desde Cape Canaveral Space Force Station

Loading…

Próximos Pases (próximas 24 horas)

TLE

ActualizadoSource: CelesTrak SupGP

Época: Sep 15, 2026, 03:08 UTC

1 62289C 24237Y   26258.13104167 -.00027905  00000+0 -10110-2 0  2588
2 62289  42.9994 226.6805 0001245 267.4126  47.2517 15.27585226    15

Sigue STARLINK-33549 en tiempo real con AllMySat

Download on the App Store